Time,TemperatureF,DewpointF,PressureIn,WindDirection,WindDirectionDegrees,WindSpeedMPH,WindSpeedGustMPH,Humidity,HourlyPrecipIn,Conditions,Clouds,dailyrainin,SolarRadiationWatts/m^2,SoftwareType,DateUTC
2013-02-14 00:15:00,25.1,20.4,30.78,SSE,152,0.0,2.0,82,0.00,CLR,SKC,0.00,0.0,WeatherDisplay:10.37,2013-02-14 07:15:00,
2013-02-14 00:45:00,23.4,18.7,30.78,SSE,152,0.0,1.0,82,0.00,CLR,SKC,0.00,0.0,WeatherDisplay:10.37,2013-02-14 07:45:00,
2013-02-14 01:15:00,24.1,19.7,30.77,SSE,152,0.0,2.0,83,0.00,CLR,SKC,0.00,0.0,WeatherDisplay:10.37,2013-02-14 08:15:00,
2013-02-14 01:45:00,24.2,19.5,30.76,SSE,152,0.0,1.0,82,0.00,CLR,SKC,0.00,0.0,WeatherDisplay:10.37,2013-02-14 08:45:00,
2013-02-14 02:15:00,22.2,18.1,30.78,SSE,152,0.0,1.0,84,0.00,CLR,SKC,0.00,0.0,WeatherDisplay:10.37,2013-02-14 09:15:00,
2013-02-14 02:45:00,21.5,17.9,30.77,SSE,152,0.0,1.0,86,0.00,CLR,SKC,0.00,0.0,WeatherDisplay:10.37,2013-02-14 09:45:00,
2013-02-14 03:15:00,23.3,19.4,30.77,SSE,152,0.0,1.0,85,0.00,CLR,SKC,0.00,0.0,WeatherDisplay:10.37,2013-02-14 10:15:00,
2013-02-14 03:45:00,24.4,20.6,30.75,SSE,152,0.0,0.0,85,0.00,CLR,SKC,0.00,0.0,WeatherDisplay:10.37,2013-02-14 10:45:00,
2013-02-14 04:15:00,24.4,20.6,30.75,SSE,159,0.0,1.0,85,0.00,CLR,SKC,0.00,0.0,WeatherDisplay:10.37,2013-02-14 11:15:00,
2013-02-14 04:45:00,24.5,20.9,30.75,SSE,161,0.0,1.0,86,0.00,CLR,SKC,0.00,0.0,WeatherDisplay:10.37,2013-02-14 11:45:00,
2013-02-14 05:15:00,25.7,21.8,30.76,SSE,161,0.0,0.0,85,0.00,CLR,SKC,0.00,0.0,WeatherDisplay:10.37,2013-02-14 12:15:00,
2013-02-14 05:45:00,25.9,22.6,30.76,SSE,161,0.0,1.0,87,0.00,CLR,SKC,0.00,0.0,WeatherDisplay:10.37,2013-02-14 12:45:00,
2013-02-14 06:15:00,26.1,22.7,30.76,SSE,161,0.0,0.0,87,0.00,CLR,SKC,0.00,0.0,WeatherDisplay:10.37,2013-02-14 13:15:00,
2013-02-14 06:45:00,25.9,22.9,30.77,SSE,161,0.0,0.0,88,0.00,CLR,SKC,0.00,0.0,WeatherDisplay:10.37,2013-02-14 13:45:00,
2013-02-14 07:15:00,25.8,23.3,30.79,NNE,28,1.0,3.0,90,0.00,OVC,SKC,0.00,0.0,WeatherDisplay:10.37,2013-02-14 14:15:00,
2013-02-14 07:45:00,27.6,24.7,30.80,ENE,63,0.0,2.0,89,0.00,BKN,SKC,0.00,14.0,WeatherDisplay:10.37,2013-02-14 14:45:00,
2013-02-14 08:15:00,27.9,25.1,30.81,ESE,112,1.0,3.0,89,0.00,BKN,SKC,0.00,60.0,WeatherDisplay:10.37,2013-02-14 15:15:00,
2013-02-14 08:45:00,27.3,24.5,30.82,SE,126,1.0,2.0,89,0.00,BKN,SKC,0.00,128.0,WeatherDisplay:10.37,2013-02-14 15:45:00,
2013-02-14 09:15:00,28.4,25.8,30.82,SE,144,0.0,0.0,90,0.00,BKN,SKC,0.00,186.0,WeatherDisplay:10.37,2013-02-14 16:15:00,
2013-02-14 09:45:00,27.6,24.8,30.85,SE,144,0.0,2.0,89,0.00,BKN,SKC,0.00,134.0,WeatherDisplay:10.37,2013-02-14 16:45:00,
2013-02-14 10:15:00,31.1,26.5,30.85,SE,144,0.0,1.0,83,0.00,CLR,SKC,0.00,248.0,WeatherDisplay:10.37,2013-02-14 17:15:00,
2013-02-14 10:45:00,31.5,27.2,30.85,SE,144,0.0,0.0,84,0.00,SCT,SKC,0.00,390.0,WeatherDisplay:10.37,2013-02-14 17:45:00,
2013-02-14 11:15:00,30.7,26.1,30.85,WNW,283,3.0,7.0,83,0.00,CLR,SKC,0.00,661.0,WeatherDisplay:10.37,2013-02-14 18:15:00,
2013-02-14 11:45:00,32.4,26.3,30.87,West,276,1.0,3.0,78,0.00,CLR,SKC,0.00,415.0,WeatherDisplay:10.37,2013-02-14 18:45:00,
2013-02-14 12:15:00,33.8,27.3,30.86,West,273,0.0,3.0,77,0.00,CLR,SKC,0.00,635.0,WeatherDisplay:10.37,2013-02-14 19:15:00,
2013-02-14 12:45:00,34.8,27.3,30.84,NNE,17,1.0,3.0,74,0.00,CLR,SKC,0.00,679.0,WeatherDisplay:10.37,2013-02-14 19:45:00,
2013-02-14 13:15:00,35.2,27.4,30.84,NW,319,0.0,4.0,73,0.00,CLR,SKC,0.00,668.0,WeatherDisplay:10.37,2013-02-14 20:15:00,
2013-02-14 13:45:00,35.4,26.6,30.84,NW,325,2.0,3.0,70,0.00,CLR,SKC,0.00,643.0,WeatherDisplay:10.37,2013-02-14 20:45:00,
2013-02-14 14:15:00,36.1,25.9,30.84,NNW,331,0.0,3.0,66,0.00,CLR,SKC,0.00,631.0,WeatherDisplay:10.37,2013-02-14 21:15:00,
2013-02-14 14:45:00,38.6,24.6,30.83,ESE,105,1.0,2.0,57,0.00,CLR,SKC,0.00,592.0,WeatherDisplay:10.37,2013-02-14 21:45:00,
2013-02-14 15:15:00,37.5,25.3,30.83,NNW,348,2.0,4.0,61,0.00,CLR,SKC,0.00,605.0,WeatherDisplay:10.37,2013-02-14 22:15:00,
2013-02-14 15:45:00,37.4,24.4,30.83,NW,323,2.0,3.0,59,0.00,CLR,SKC,0.00,566.0,WeatherDisplay:10.37,2013-02-14 22:45:00,
2013-02-14 16:15:00,37.6,24.5,30.83,NNW,330,1.0,3.0,59,0.00,CLR,SKC,0.00,281.0,WeatherDisplay:10.37,2013-02-14 23:15:00,
2013-02-14 16:45:00,36.9,24.7,30.83,WSW,254,3.0,7.0,61,0.00,CLR,SKC,0.00,178.0,WeatherDisplay:10.37,2013-02-14 23:45:00,
2013-02-14 17:15:00,36.4,25.4,30.83,WSW,242,1.0,3.0,64,0.00,CLR,SKC,0.00,63.0,WeatherDisplay:10.37,2013-02-15 00:15:00,
2013-02-14 17:45:00,34.5,24.6,30.83,SW,226,1.0,3.0,67,0.00,OVC,SKC,0.00,14.0,WeatherDisplay:10.37,2013-02-15 00:45:00,
2013-02-14 18:15:00,32.2,23.5,30.83,SSW,213,0.0,1.0,70,0.00,OVC,SKC,0.00,0.0,WeatherDisplay:10.37,2013-02-15 01:15:00,
2013-02-14 18:45:00,30.3,22.4,30.84,SSE,165,0.0,3.0,72,0.00,CLR,SKC,0.00,0.0,WeatherDisplay:10.37,2013-02-15 01:45:00,
2013-02-14 19:15:00,29.9,22.0,30.84,SSE,163,1.0,4.0,72,0.00,CLR,SKC,0.00,0.0,WeatherDisplay:10.37,2013-02-15 02:15:00,
2013-02-14 19:45:00,29.5,21.9,30.85,SSE,157,2.0,3.0,73,0.00,CLR,SKC,0.00,0.0,WeatherDisplay:10.37,2013-02-15 02:45:00,
2013-02-14 20:15:00,27.2,21.0,30.85,SSE,156,0.0,1.0,77,0.00,CLR,SKC,0.00,0.0,WeatherDisplay:10.37,2013-02-15 03:15:00,
2013-02-14 20:45:00,27.0,21.1,30.86,SSE,156,0.0,2.0,78,0.00,CLR,SKC,0.00,0.0,WeatherDisplay:10.37,2013-02-15 03:45:00,
2013-02-14 21:15:00,28.6,22.0,30.88,SSE,156,0.0,1.0,76,0.00,CLR,SKC,0.00,0.0,WeatherDisplay:10.37,2013-02-15 04:15:00,
2013-02-14 21:45:00,26.5,20.8,30.88,SSE,156,0.0,1.0,79,0.00,CLR,SKC,0.00,0.0,WeatherDisplay:10.37,2013-02-15 04:45:00,
2013-02-14 22:15:00,28.5,21.9,30.89,South,169,1.0,2.0,76,0.00,CLR,SKC,0.00,0.0,WeatherDisplay:10.37,2013-02-15 05:15:00,
2013-02-14 22:45:00,27.6,21.0,30.90,SSE,163,0.0,1.0,76,0.00,CLR,SKC,0.00,0.0,WeatherDisplay:10.37,2013-02-15 05:45:00,
2013-02-14 23:15:00,25.3,20.2,30.90,SSE,164,0.0,0.0,81,0.00,CLR,SKC,0.00,0.0,WeatherDisplay:10.37,2013-02-15 06:15:00,
2013-02-14 23:45:00,24.3,19.3,30.91,SSE,164,0.0,0.0,81,0.00,CLR,SKC,0.00,0.0,WeatherDisplay:10.37,2013-02-15 06:45:00,